Regional Weather Roundup
Issued by NWS Cleveland, OH

Home | Current Version | Previous Version | Graphics & Text | Print | Product List | Glossary On
Versions: 1 2 3 4 5 6 7 8 9 10 11 12 13 14 15 16 17 18 19 20 21 22 23 24 25 26 27 28 29 30 31 32 33 34 35 36 37 38 39 40 41 42 43 44 45 46 47 48 49 50
000
ASUS41 KCLE 171200
RWRCLE
OHIO REGIONAL WEATHER ROUNDUP
NATIONAL WEATHER SERVICE WILMINGTON, OH
700 AM EST SAT FEB 17 2018

NOTE: "FAIR" INDICATES FEW OR NO CLOUDS BELOW 12,000 FEET WITH NO
SIGNIFICANT WEATHER AND/OR OBSTRUCTIONS TO VISIBILITY.

OHZ001>008-015>018-024>027-034-035-043-044-171300-
   NORTHWEST OHIO

CITY           SKY/WX    TMP DP  RH WIND       PRES   REMARKS
DEFIANCE       FAIR      25  19  78 S3        30.20F
FINDLAY        MOCLDY    26  20  77 S5        30.20F WCI  20
TOLEDO EXPRESS FAIR      24  22  91 S5        30.20F WCI  18
TOLEDO EXEC    CLOUDY    26  20  77 S7        30.23S WCI  18
LIMA           MOCLDY    26  23  88 S5        30.20F WCI  20
$$

OHZ009>014-019>023-028>033-038-089-171300-
   NORTHEAST OHIO

CITY           SKY/WX    TMP DP  RH WIND       PRES   REMARKS
CLE-HOPKINS    CLOUDY    30  20  66 S3        30.25F
CLE-LAKEFRONT  CLOUDY    30  17  58 SE5       30.24F WCI  25
CUY CO. ARPT   CLOUDY    30  19  64 SE6       30.25  WCI  24
LORAIN-ELYRIA  CLOUDY    28  19  69 VRB5      30.23F WCI  23
ASHTABULA      CLOUDY    27  19  72 SE7       30.26F WCI  19
AKRON-CANTON   CLOUDY    29  18  63 S8        30.23F WCI  21
WOOSTER        NOT AVBL
MANSFIELD      CLOUDY    28  24  85 S5        30.20F WCI  23
YOUNGSTOWN     CLOUDY    27  18  69 SE7       30.24F WCI  19
$$

OHZ042-051>053-060>062-070>072-077>081-171300-
  SOUTHWEST OHIO

CITY           SKY/WX    TMP DP  RH WIND       PRES   REMARKS
CINC-COVINGTON CLOUDY    31  28  89 E6        30.18F WCI  25
CINC-LUNKEN    MOCLDY    33  27  78 CALM      30.22F
HAMILTON       CLOUDY    33  29  85 CALM      30.22F
DAYTON         NOT AVBL
WRIGHT-PAT AFB CLOUDY    30  27  88 CALM      30.21S
DAYTON GENERAL CLOUDY    32  25  75 CALM      30.20S
WILMINGTON     CLOUDY    30  26  85 SE5       30.20F WCI  25
$$

OHZ036-037-039>041-045>050-054>059-063>069-073>076-082>088-171300-
  CENTRAL AND SOUTHEAST OHIO

CITY           SKY/WX    TMP DP  RH WIND       PRES   REMARKS
COLUMBUS       MOCLDY    31  24  75 SE8       30.22F WCI  23
OSU AIRPORT    CLOUDY    30  26  85 SE6       30.21F WCI  24
BOLTON FIELD   NOT AVBL
RICKENBACK AFB NOT AVBL
NEWARK         CLOUDY    29  22  75 SE6       30.22F WCI  23
MARION         CLOUDY    28  23  81 S5        30.22F WCI  23
LANCASTER      CLOUDY    29  24  82 CALM      30.23F
ZANESVILLE     MOCLDY    29  21  72 SE6       30.23F WCI  23
NEW PHILLY     CLOUDY    30  20  66 SE5       30.25F WCI  25
$$




USA.gov is the U.S. government's official web portal to all federal, state and local government web resources and services.